[Date Prev][Date Next][Thread Prev][Thread Next] - [Date Index][Thread Index][Author Index]
2 Line ISS Keps 9-21
- Subject: [sarex] 2 Line ISS Keps 9-21
- From: "Dave Larsen PhD" <doc@xxxxxxxxxxx>
- Date: Tue, 21 Sep 2004 04:17:55 -0700
ISS
1 25544U 98067A 04265.28380035 .00018540 00000-0 15577-3 0 7349
2 25544 51.6351 195.2445 0005556 173.0104 323.9496 15.69936921333411
----
Via the sarex mailing list at AMSAT.ORG courtesy of AMSAT-NA.
To unsubscribe, send "unsubscribe sarex" to Majordomo@amsat.org
AMSAT Home